LX1BS-13 Weather Reports


time (UTC)temp
F
wind
direction
speed
knots
gust
knots
rain 1hr
in
rain 24hr
in
rain mn
in
humidity
%
barometer
mb
20260502231610 58 0 0.0 0.9 0.00 0.00 0.00 61 1014.4
20260502230057 58 0 0.0 1.7 0.00 0.00 0.00 62 1014.5
20260502224601 58 0 0.0 0.0 0.00 0.00 0.00 62 1014.5
20260502223101 59 0 0.0 1.7 0.00 0.00 0.00 61 1014.5
20260502221558 59 0 0.0 0.0 0.00 0.00 0.00 60 1014.7
20260502220100 59 0 0.0 0.9 0.00 0.00 0.00 59 1014.6
20260502214558 60 0 0.0 0.0 0.00 0.00 0.00 58 1014.6
20260502213109 60 0 0.0 0.0 0.00 0.00 0.00 57 1014.6
20260502211606 61 0 0.0 1.7 0.00 0.00 0.00 56 1014.7
20260502210058 61 0 0.0 1.7 0.00 0.00 0.00 56 1014.7
20260502204618 61 0 0.0 1.7 0.00 0.00 0.00 55 1014.7
20260502203105 62 0 0.0 0.9 0.00 0.00 0.00 55 1014.7
20260502201603 62 0 0.0 0.9 0.00 0.00 0.00 54 1014.7
20260502200100 63 0 0.0 0.9 0.00 0.00 0.00 54 1014.8
20260502194600 64 0 0.0 0.9 0.00 0.00 0.00 53 1014.7
20260502193103 65 45 0.0 0.9 0.00 0.00 0.00 51 1014.8
20260502191556 65 45 0.0 1.7 0.00 0.00 0.00 50 1014.6
20260502190100 66 45 0.9 1.7 0.00 0.00 0.00 48 1014.5
20260502184606 67 45 0.0 2.6 0.00 0.00 0.00 47 1014.5
20260502183104 67 56 0.0 1.7 0.00 0.00 0.00 47 1014.4
20260502181607 68 0 0.0 1.7 0.00 0.00 0.00 46 1014.5
20260502180107 69 0 0.0 1.7 0.00 0.00 0.00 45 1014.5
20260502170109 71 63 0.9 2.6 0.00 0.00 0.00 45 1014.6
20260502163102 72 0 1.7 4.3 0.00 0.00 0.00 44 1014.7
20260502161600 73 32 0.0 4.3 0.00 0.00 0.00 42 1014.9
20260502151611 73 320 0.9 7.8 0.00 0.00 0.00 47 1015.5
20260502123100 73 260 6.1 11.3 0.00 0.00 0.00 54 1017.8
20260502121557 73 253 5.2 12.2 0.00 0.00 0.00 55 1018.1
20260502120104 74 247 2.6 12.2 0.00 0.00 0.00 54 1018.2
20260502114559 73 242 4.3 7.8 0.00 0.00 0.00 52 1018.3
20260502113059 73 251 3.5 7.8 0.00 0.00 0.00 53 1018.5
20260502111623 73 295 3.5 7.8 0.00 0.00 0.00 51 1018.8
20260502110100 72 259 1.7 9.6 0.00 0.00 0.00 52 1018.9
20260502104559 71 261 3.5 7.8 0.00 0.00 0.00 51 1019.1
20260502103110 71 252 3.5 7.8 0.00 0.00 0.00 50 1019.2
20260502101612 71 333 2.6 6.1 0.00 0.00 0.00 49 1019.5
20260502090105 66 217 0.0 1.7 0.00 0.00 0.00 66 1019.9
20260502070101 53 267 0.0 1.7 0.00 0.00 0.00 74 1020.9
20260502064603 53 0 0.0 2.6 0.00 0.00 0.00 75 1020.6
20260502063100 52 267 0.9 1.7 0.00 0.00 0.00 77 1020.5
20260502061557 49 0 0.0 1.7 0.00 0.00 0.00 77 1020.5
20260502060101 48 0 0.0 0.9 0.00 0.00 0.00 80 1020.8
20260502054604 47 55 0.0 1.7 0.00 0.00 0.00 79 1021.1
20260502053102 46 38 0.0 1.7 0.00 0.00 0.00 79 1021.3
20260502051601 46 0 0.9 2.6 0.00 0.00 0.00 81 1021.4
20260502050101 45 0 0.0 0.9 0.00 0.00 0.00 82 1020.9
20260502044559 44 0 0.0 0.0 0.00 0.00 0.00 80 1020.8
20260502043106 44 0 0.0 0.0 0.00 0.00 0.00 79 1020.8
20260502041558 44 0 0.0 0.9 0.00 0.00 0.00 78 1020.7
20260502040057 44 0 0.0 2.6 0.00 0.00 0.00 78 1020.6
20260502034601 44 0 0.0 2.6 0.00 0.00 0.00 76 1020.6
20260502033059 43 21 0.0 1.7 0.00 0.00 0.00 79 1020.8
20260502031559 43 0 0.0 1.7 0.00 0.00 0.00 81 1021.2
20260502030101 43 261 1.7 3.5 0.00 0.00 0.00 79 1021.5
20260502024558 44 0 0.0 0.0 0.00 0.00 0.00 78 1020.9
20260502023102 44 0 0.0 0.0 0.00 0.00 0.00 76 1020.9
20260502021559 45 0 0.0 0.0 0.00 0.00 0.00 75 1020.9
20260502020059 44 0 0.0 1.7 0.00 0.00 0.00 76 1021.0
20260502014557 45 352 0.0 0.9 0.00 0.00 0.00 73 1021.2
20260502013100 46 0 0.0 0.9 0.00 0.00 0.00 71 1021.3
20260502011604 46 0 0.0 1.7 0.00 0.00 0.00 72 1021.1
20260502010057 45 0 0.0 1.7 0.00 0.00 0.00 74 1021.3
20260502004609 45 288 0.0 1.7 0.00 0.00 0.00 74 1021.5
20260502003059 46 288 0.9 1.7 0.00 0.00 0.00 72 1021.5
20260502001558 46 0 0.0 0.9 0.00 0.00 0.00 71 1021.3
20260502000113 47 0 0.0 0.0 0.00 0.00 0.00 69 1021.4
20260501234557 47 326 0.9 1.7 0.00 0.00 0.00 67 1021.5
20260501233107 49 0 0.0 0.9 0.00 0.00 0.00 64 1021.6